Location: DARK SKY Beskydy - Park tmavé oblohy, www.darkskybeskydy.cz
(49.4926°N, 18.5016°E)
Time: 03:22:05
(UTC+02:00)

A-11 Canister half - Pass Details

Date: 29 February 2024
Orbit: 1513 x 1686 km, 47.2° (Epoch: 24 April)

Event Time Altitude Azimuth Distance (km) Brightness Sun altitude
Rises 23:31:22 0° 210° (SSW) 4,916 - -47.6°
Reaches altitude 10° 23:34:49 10° 202° (SSW) 3,938 - -47.7°
Maximum altitude 23:43:46 37° 140° (SE) 2,403 - -47.9°
Exits shadow 23:52:24 11° 79° (E) 3,850 11.1 -48.0°
Drops below altitude 10° 23:52:40 10° 78° (ENE) 3,922 11.2 -48.0°
Sets 23:56:05 0° 71° (ENE) 4,895 11.8 -48.0°
